Simultaneous Nadir Overpasses (SNOs) Predictions

Prediction of SNOs between GOES-17 and AQUA Satellite Orbit:

Table of predicted SNOs for the next 14.0 days since TLE Epoch: 2/1/2025
Index Date Time (GOES-17) GOES-17 Lat,Lon AQUA Lat,Lon Distance(km) Time Diff (sec)
1 02/02/2025 09:15:17 0.05,-104.70 -0.57,-101.84 325.66 80
2 02/02/2025 21:34:51 -0.05,-104.64 -0.46,-106.57 219.78 80
3 02/04/2025 21:18:13 -0.05,-104.65 0.55,-101.84 318.97 80
4 02/05/2025 09:37:38 0.05,-104.72 0.43,-106.54 206.65 80
5 02/07/2025 09:15:38 0.06,-104.73 -0.56,-101.80 332.38 80
6 02/07/2025 21:35:10 -0.06,-104.66 -0.49,-106.53 213.05 80
7 02/09/2025 21:18:29 -0.07,-104.67 0.53,-101.79 326.93 80
8 02/10/2025 09:37:53 0.07,-104.74 0.46,-106.48 198.13 80
9 02/12/2025 09:15:51 0.08,-104.76 -0.59,-101.75 342.94 80
10 02/12/2025 21:35:23 -0.08,-104.69 -0.46,-106.46 201.96 80
11 02/14/2025 21:18:39 -0.08,-104.71 0.57,-101.72 340.43 80
